Weather observations for the past three days for
Unalakleet
| Date | Time (akdt) | Wind (mph) | Vis. (mi.) | Weather | Sky Cond. | Temperature (ºF) | Relative Humidity | Wind Chill (°F) | Heat Index (°F) | Pressure | Precipitation (in) | ||||||
|---|---|---|---|---|---|---|---|---|---|---|---|---|---|---|---|---|---|
| Air | Dwpt | 6 hour | altimeter (in) | sea level (mb) | 1 hr | 3 hr | 6 hr | ||||||||||
| Max. | Min. | ||||||||||||||||
| 04 | 14:56 | NW 21 | 10.00 | Fair and Breezy | CLR | 30.9 | 27 | 85% | 19 | 29.98 | 1015.7 | ||||||
| 04 | 13:56 | NW 17 | 10.00 | Mostly Cloudy | BKN022 | 30.9 | 26.1 | 82% | 20 | 30.01 | 1016.7 | ||||||
| 04 | 12:56 | NW 15 | 10.00 | Overcast | OVC016 | 30 | 26.1 | 85% | 20 | 30.04 | 1017.5 | ||||||
| 04 | 11:56 | NW 13 | 10.00 | Overcast | OVC014 | 28.9 | 25 | 85% | 19 | 30.05 | 1018.1 | ||||||
| 04 | 10:56 | NW 10 | 10.00 | Overcast | OVC014 | 28.9 | 25 | 85% | 20 | 30.07 | 1018.7 | ||||||
| 04 | 09:56 | NW 7 | 10.00 | Overcast | OVC014 | 28 | 23 | 28 | 27 | 81% | 22 | 30.09 | 1019.2 | ||||
| 04 | 08:56 | NW 9 | 10.00 | Overcast | OVC014 | 28 | 23 | 81% | 20 | 30.1 | 1019.5 | ||||||
| 04 | 07:56 | N 6 | 10.00 | Overcast | OVC014 | 27 | 23 | 85% | 21 | 30.11 | 1019.8 | ||||||
| 04 | 06:56 | N 3 | 10.00 | Overcast | OVC014 | 27 | 23 | 85% | 30.12 | 1020.2 | |||||||
| 04 | 05:56 | N 5 | 10.00 | Overcast | OVC014 | 27 | 23 | 85% | 22 | 30.12 | 1020.3 | ||||||
| 04 | 03:56 | NW 6 | 10.00 | Overcast | OVC012 | 27 | 23 | 27 | 26.1 | 85% | 21 | 30.13 | 1020.6 | ||||
| 04 | 02:56 | NW 6 | 10.00 | Overcast | OVC012 | 27 | 23 | 85% | 21 | 30.13 | 1020.8 | ||||||
| 04 | 01:56 | NW 5 | 10.00 | Overcast | OVC012 | 27 | 23 | 85% | 22 | 30.14 | 1021.0 | ||||||
| 04 | 00:56 | NW 7 | 10.00 | Overcast | OVC012 | 27 | 23 | 85% | 20 | 30.14 | 1020.9 | ||||||
| 03 | 23:56 | Calm | 10.00 | Overcast | OVC014 | 27 | 23 | 85% | 30.14 | 1021.1 | |||||||
| 03 | 22:56 | W 8 | 10.00 | Overcast | OVC014 | 27 | 23 | 85% | 19 | 30.14 | 1021.0 | ||||||
| 03 | 21:56 | W 8 | 10.00 | Overcast | OVC014 | 27 | 23 | 30.9 | 27 | 85% | 19 | 30.14 | 1020.8 | ||||
| 03 | 20:56 | W 6 | 10.00 | Overcast | OVC014 | 28 | 21.9 | 78% | 22 | 30.14 | 1021.1 | ||||||
| 03 | 19:56 | W 5 | 10.00 | Overcast | OVC016 | 28.9 | 23 | 78% | 25 | 30.15 | 1021.2 | ||||||
| 03 | 18:56 | W 6 | 10.00 | Overcast | OVC016 | 28.9 | 23 | 78% | 23 | 30.15 | 1021.4 | ||||||
| 03 | 17:56 | W 5 | 10.00 | Overcast | OVC016 | 30 | 24.1 | 79% | 26 | 30.16 | 1021.6 | ||||||
| 03 | 16:56 | W 6 | 10.00 | Overcast | OVC014 | 30 | 24.1 | 79% | 25 | 30.17 | 1021.9 | ||||||
| 03 | 15:56 | SW 3 | 10.00 | Overcast | OVC014 | 30.9 | 24.1 | 30.9 | 27 | 76% | 30.17 | 1022.0 | |||||
| 03 | 14:56 | SW 3 | 10.00 | Overcast | OVC014 | 30 | 24.1 | 79% | 30.17 | 1022.0 | |||||||
| 03 | 13:56 | SW 7 | 10.00 | Overcast | OVC012 | 28.9 | 24.1 | 82% | 23 | 30.17 | 1022.1 | ||||||
| 03 | 12:56 | SW 6 | 10.00 | Overcast | OVC012 | 28.9 | 24.1 | 82% | 23 | 30.17 | 1021.9 | ||||||
| 03 | 11:56 | SW 6 | 10.00 | Overcast | OVC010 | 28 | 24.1 | 85% | 22 | 30.16 | 1021.7 | ||||||
| 03 | 10:56 | SW 6 | 10.00 | Overcast | OVC012 | 28 | 24.1 | 85% | 22 | 30.15 | 1021.4 | ||||||
| 03 | 09:56 | SW 7 | 10.00 | Overcast | OVC014 | 27 | 24.1 | 27 | 26.1 | 89% | 20 | 30.14 | 1021.0 | ||||
| 03 | 08:56 | SW 8 | 10.00 | Overcast | OVC014 | 27 | 23 | 85% | 19 | 30.13 | 1020.6 | ||||||
| 03 | 07:56 | SW 10 | 10.00 | Overcast | OVC012 | 26.1 | 23 | 88% | 17 | 30.11 | 1020.0 | ||||||
| 03 | 06:56 | SW 15 | 10.00 | Overcast | OVC012 | 26.1 | 24.1 | 92% | 15 | 30.1 | 1019.6 | ||||||
| 03 | 05:56 | SW 14 | 10.00 | Overcast | OVC014 | 27 | 24.1 | 89% | 16 | 30.08 | 1019.0 | ||||||
| 03 | 04:56 | SW 12 | 10.00 | Overcast | OVC012 | 26.1 | 23 | 88% | 16 | 30.07 | 1018.6 | ||||||
| 03 | 03:56 | SW 12 | 10.00 | Overcast | OVC014 | 26.1 | 23 | 30.9 | 26.1 | 88% | 16 | 30.06 | 1018.2 | ||||
| 03 | 02:56 | SW 16 | 10.00 | Overcast | FEW011 OVC022 | 27 | 24.1 | 89% | 16 | 30.04 | 1017.5 | ||||||
| 03 | 01:56 | W 17 | 10.00 | Overcast | OVC026 | 28 | 25 | 88% | 17 | 30.02 | 1016.8 | ||||||
| 03 | 00:56 | W 9 | 10.00 | Overcast | FEW015 BKN023 OVC028 | 28.9 | 27 | 92% | 21 | 29.99 | 1015.9 | ||||||
| 02 | 23:56 | SW 13 | 6.00 | Light Snow Fog/Mist | BKN008 OVC016 | 28.9 | 28 | 96% | 19 | 29.97 | 1015.1 | ||||||
| 02 | 22:56 | SW 10 | 7.00 | Light Snow | FEW008 OVC020 | 30 | 28 | 92% | 22 | 29.95 | 1014.5 | ||||||
| 02 | 21:56 | SW 10 | 5.00 | Unknown Precip Fog/Mist | FEW004 BKN012 OVC016 | 30.9 | 28.9 | 35.1 | 30.9 | 92% | 23 | 29.93 | 1013.7 | ||||
| 02 | 20:56 | SW 7 | 6.00 | Fog/Mist | SCT013 OVC030 | 30.9 | 28.9 | 92% | 25 | 29.9 | 1012.9 | ||||||
| 02 | 19:56 | W 7 | 5.00 | Fog/Mist | OVC013 | 32 | 28.9 | 88% | 26 | 29.88 | 1012.3 | ||||||
| 02 | 18:56 | W 8 | 10.00 | Overcast | OVC011 | 32 | 30 | 92% | 25 | 29.86 | 1011.4 | ||||||
| 02 | 17:56 | SW 8 | 3.00 | Light Snow Fog/Mist | BKN009 BKN014 OVC025 | 33.1 | 30 | 89% | 27 | 29.83 | 1010.5 | ||||||
| 02 | 16:56 | SW 8 | 4.00 | Light Snow Fog/Mist | FEW006 BKN010 OVC029 | 34 | 30.9 | 89% | 28 | 29.81 | 1009.7 | ||||||
| 02 | 15:56 | SW 10 | 1.75 | Light Snow Fog/Mist | OVC006 | 34 | 30.9 | 35.1 | 33.1 | 89% | 27 | 29.78 | 1008.8 | ||||
| 02 | 14:56 | SW 12 | 1.75 | Light Snow Fog/Mist | BKN005 BKN010 OVC020 | 33.1 | 30.9 | 92% | 25 | 29.76 | 1008.0 | ||||||
| 02 | 13:56 | SW 10 | 1.25 | Light Snow Fog/Mist | BKN007 OVC017 | 33.1 | 30.9 | 92% | 26 | 29.73 | 1007.0 | ||||||
| 02 | 12:56 | SW 13 | 2.00 | Light Snow Fog/Mist | BKN005 BKN009 OVC019 | 33.1 | 32 | 96% | 25 | 29.69 | 1005.8 | ||||||
| 02 | 11:56 | SW 13 | 5.00 | Light Snow Fog/Mist | BKN005 OVC015 | 34 | 33.1 | 97% | 26 | 29.65 | 1004.5 | ||||||
| 02 | 10:56 | SW 10 | 10.00 | Light Rain | BKN011 OVC018 | 33.1 | 33.1 | 100% | 26 | 29.61 | 1002.9 | ||||||
| 02 | 09:56 | SW 6 | 10.00 | Unknown Precip | OVC013 | 34 | 34 | 37 | 34 | 100% | 29 | 29.57 | 1001.6 | ||||
| 02 | 08:56 | SW 5 | 10.00 | Light Rain | FEW004 OVC014 | 34 | 34 | 100% | 30 | 29.53 | 1000.5 | ||||||
| 02 | 07:56 | S 6 | 10.00 | Light Rain | FEW004 OVC013 | 35.1 | 34 | 96% | 31 | 29.51 | 999.5 | ||||||
| 02 | 06:56 | SE 6 | 10.00 | Light Rain | OVC013 | 36 | 34 | 93% | 32 | 29.48 | 998.6 | ||||||
| 02 | 05:56 | E 5 | 10.00 | Light Rain | OVC019 | 36 | 34 | 93% | 33 | 29.46 | 997.8 | ||||||
| 02 | 04:56 | E 3 | 10.00 | Light Rain | OVC017 | 36 | 34 | 93% | 29.43 | 996.9 | |||||||
| 02 | 03:56 | SE 5 | 10.00 | Overcast | BKN017 OVC026 | 36 | 34 | 39.9 | 36 | 93% | 33 | 29.41 | 996.3 | ||||
| 02 | 02:56 | E 8 | 10.00 | Unknown Precip | BKN019 OVC048 | 37 | 35.1 | 93% | 32 | 29.39 | 995.5 | ||||||
| 02 | 01:56 | E 9 | 10.00 | Overcast | BKN021 OVC044 | 37 | 35.1 | 93% | 31 | 29.37 | 994.8 | ||||||
| 02 | 00:56 | E 8 | 10.00 | Overcast | OVC029 | 37.9 | 35.1 | 89% | 33 | 29.35 | 994.1 | ||||||
| 01 | 23:56 | E 8 | 10.00 | Light Rain | OVC026 | 37.9 | 36 | 93% | 33 | 29.33 | 993.5 | ||||||
| 01 | 22:56 | E 6 | 10.00 | Light Rain | OVC026 | 37.9 | 37 | 97% | 34 | 29.31 | 992.9 | ||||||
| 01 | 21:56 | SE 6 | 10.00 | Light Rain | OVC022 | 39.9 | 37.9 | 45 | 39 | 93% | 36 | 29.3 | 992.5 | ||||
| 01 | 20:56 | E 8 | 10.00 | Light Rain | FEW029 BKN036 OVC046 | 39.9 | 37 | 89% | 35 | 29.28 | 992.0 | ||||||
| 01 | 19:56 | E 9 | 10.00 | Light Rain | FEW027 OVC040 | 41 | 36 | 82% | 36 | 29.28 | 991.8 | ||||||
| 01 | 18:56 | E 16 | 10.00 | Overcast | OVC033 | 41 | 37 | 86% | 33 | 29.28 | 991.9 | ||||||
| 01 | 17:56 | E 10 | 10.00 | Partly Cloudy | FEW030 SCT060 SCT075 | 45 | 37 | 74% | 40 | 29.28 | 991.8 | ||||||
| 01 | 16:56 | E 16 | 10.00 | Light Rain | OVC033 | 42.1 | 36 | 79% | 35 | 29.29 | 992.2 | ||||||
| 01 | 15:56 | E 13 | 10.00 | Light Rain | BKN033 OVC043 | 43 | 36 | 43 | 39 | 76% | 37 | 29.29 | 992.3 | ||||
| Date | Time (akdt) | Wind (mph) | Vis. (mi.) | Weather | Sky Cond. | Air | Dwpt | Max. | Min. | Relative Humidity | Wind Chill (°F) | Heat Index (°F) | altimeter (in) | sea level (mb) | 1 hr | 3 hr | 6 hr |
| 6 hour | |||||||||||||||||
| Temperature (ºF) | Pressure | Precipitation (in) | |||||||||||||||